Home > Weather > Brasilia > Past weeks

Flag for Brazil Weather for the Past 2 Weeks in Brasilia, Distrito Federal, Brazil

Now
72 °F

Passing clouds.


Feels Like: 71 °F
Forecast: 65 / 80 °F
Wind: 6 mph from North

Location: Brasilia Aeroporto

Current Time: Feb 14, 2016 at 5:03:03 AM

Latest Report: Feb 14, 2016 at 4:00 AM


Visibility: N/A

Pressure: 30.01 "Hg (26.45 "Hg at 1091m altitude)

Humidity: 83%

Dew point: 66 °F

Location of BrasiliaLocation

Historic Weather in Brasilia — Graph

°F

Brasilia Temperature Yesterday

Maximum temperature yesterday: 82 °F (at 2:00 PM)
Minimum temperature yesterday: 68 °F (at 3:00 AM)
Average temperature yesterday: 73 °F

High & Low Weather Summary for the Past Weeks

 TemperatureHumidityPressure
High88 °F (Feb 7, 4:00 PM)100% (Feb 1, 7:00 AM)30.24 "Hg (Feb 1, 7:00 AM)
Low59 °F (Feb 1, 7:00 AM)25% (Feb 8, 8:00 PM)29.95 "Hg (Feb 13, 6:00 PM)
Average74 °F70%30.10 "Hg
* Reported Jan 30 4:00 AM — Feb 14 4:00 AM, Brasilia, Weather by CustomWeather, © 2016

Note: Actual official high and low records may vary slightly from our data, if they occured in-between our weather recording intervals... More about our weather records

Advertising

Brasilia Weather History for the Previous 24 Hours

 ConditionsComfort  
Time TempWeatherWind HumidityBarometerVisibility
4:00 AM
Sun, Feb 14
72 °FPassing clouds.6 mph83%30.01 "HgN/A
3:00 AM68 °FPassing clouds.2 mph94%30.04 "HgN/A
2:00 AM68 °FThundershowers. Passing clouds.3 mph94%N/AN/A
1:00 AM68 °FPassing clouds.2 mph94%30.07 "HgN/A
12:00 AM68 °FThundershowers. Passing clouds.2 mph94%N/AN/A
11:00 PM
Sat, Feb 13
68 °FThundershowers. Passing clouds.3 mph94%30.07 "HgN/A
10:00 PM70 °FPassing clouds.3 mph88%30.04 "HgN/A
9:00 PM72 °FPassing clouds.3 mph83%30.01 "HgN/A
8:00 PM72 °FLight rain. Scattered clouds.3 mph83%29.98 "HgN/A
7:00 PM75 °FPartly sunny.6 mph74%29.98 "HgN/A
6:00 PM81 °FPassing clouds.6 mph62%29.95 "HgN/A
5:00 PM77 °FScattered clouds.8 mph69%29.98 "HgN/A
4:00 PM77 °FScattered showers. Scattered clouds.5 mph65%30.01 "HgN/A
3:00 PM73 °FThunderstorms. Broken clouds.7 mph78%30.04 "HgN/A
2:00 PM82 °FScattered showers. Partly sunny.7 mph55%30.04 "HgN/A
1:00 PM81 °FBroken clouds.7 mph58%30.07 "HgN/A
12:00 PM79 °FBroken clouds.3 mph61%30.07 "HgN/A
11:00 AM77 °FBroken clouds.9 mph65%30.09 "HgN/A
10:00 AM79 °FBroken clouds.7 mph65%30.07 "HgN/A
9:00 AM72 °FPartly sunny.5 mph78%30.07 "HgN/A
8:00 AM70 °FPassing clouds.2 mph88%30.04 "HgN/A
7:00 AM68 °FPassing clouds.3 mph88%30.01 "HgN/A
6:00 AM68 °FPassing clouds.3 mph88%30.01 "HgN/A
5:00 AM68 °FClear.5 mph88%30.01 "Hg10 mi
Weather by CustomWeather, © 2016

See weather overviewHow to use our weather pages